| time (UTC) | temp C | wind direction | speed KPH | gust KPH | rain 1hr cm | rain 24hr cm | rain mn cm | humidity % | barometer mb |
| 20260504234548 | 26 | 0 | 0.0 | 6.4 | 0.00 | 0.00 | 0.00 | 42 | 1001.0 |
| 20260504233100 | 27 | 0 | 0.0 | 8.0 | 0.00 | 0.00 | 0.00 | 43 | 1000.9 |
| 20260504231546 | 27 | 204 | 0.0 | 11.3 | 0.00 | 0.00 | 0.00 | 42 | 1001.0 |
| 20260504230053 | 27 | 124 | 1.6 | 14.5 | 0.00 | 0.00 | 0.00 | 41 | 1001.0 |
| 20260504224550 | 27 | 130 | 1.6 | 16.1 | 0.00 | 0.00 | 0.00 | 41 | 1001.0 |
| 20260504223047 | 28 | 0 | 3.2 | 14.5 | 0.00 | 0.00 | 0.00 | 40 | 1001.0 |
| 20260504221544 | 28 | 127 | 1.6 | 8.0 | 0.00 | 0.00 | 0.00 | 38 | 1000.9 |
| 20260504220048 | 28 | 152 | 3.2 | 12.9 | 0.00 | 0.00 | 0.00 | 37 | 1001.1 |
| 20260504214555 | 28 | 304 | 1.6 | 16.1 | 0.00 | 0.00 | 0.00 | 37 | 1001.1 |
| 20260504213051 | 28 | 133 | 1.6 | 16.1 | 0.00 | 0.00 | 0.00 | 37 | 1001.3 |
| 20260504211549 | 28 | 132 | 1.6 | 11.3 | 0.00 | 0.00 | 0.00 | 36 | 1001.3 |
| 20260504210104 | 28 | 155 | 1.6 | 11.3 | 0.00 | 0.00 | 0.00 | 35 | 1001.4 |
| 20260504204559 | 28 | 142 | 1.6 | 11.3 | 0.00 | 0.00 | 0.00 | 37 | 1001.6 |
| 20260504203102 | 27 | 256 | 0.0 | 14.5 | 0.00 | 0.00 | 0.00 | 38 | 1001.7 |
| 20260504201551 | 27 | 148 | 1.6 | 16.1 | 0.00 | 0.00 | 0.00 | 38 | 1001.9 |
| 20260504200049 | 27 | 0 | 1.6 | 12.9 | 0.00 | 0.00 | 0.00 | 39 | 1001.9 |
| 20260504194600 | 27 | 147 | 1.6 | 8.0 | 0.00 | 0.00 | 0.00 | 41 | 1002.0 |
| 20260504193051 | 27 | 147 | 1.6 | 17.7 | 0.00 | 0.00 | 0.00 | 41 | 1002.1 |
| 20260504191555 | 27 | 131 | 1.6 | 8.0 | 0.00 | 0.00 | 0.00 | 42 | 1002.0 |
| 20260504190112 | 27 | 182 | 1.6 | 12.9 | 0.00 | 0.00 | 0.00 | 42 | 1002.0 |
| 20260504184552 | 26 | 188 | 1.6 | 16.1 | 0.00 | 0.00 | 0.00 | 44 | 1002.1 |
| 20260504183049 | 26 | 257 | 1.6 | 12.9 | 0.00 | 0.00 | 0.00 | 44 | 1002.3 |
| 20260504181544 | 26 | 0 | 3.2 | 12.9 | 0.00 | 0.00 | 0.00 | 43 | 1002.3 |
| 20260504180051 | 26 | 0 | 1.6 | 12.9 | 0.00 | 0.00 | 0.00 | 41 | 1002.3 |
| 20260504174555 | 25 | 147 | 1.6 | 11.3 | 0.00 | 0.00 | 0.00 | 45 | 1002.6 |
| 20260504173048 | 25 | 211 | 1.6 | 11.3 | 0.00 | 0.00 | 0.00 | 44 | 1002.6 |
| 20260504171543 | 25 | 195 | 3.2 | 12.9 | 0.00 | 0.00 | 0.00 | 44 | 1002.8 |
| 20260504081600 | 16 | 0 | 0.0 | 1.6 | 0.00 | 0.00 | 0.00 | 60 | 1005.1 |
| 20260504060104 | 19 | 0 | 0.0 | 0.0 | 0.00 | 0.00 | 0.00 | 53 | 1006.8 |
| 20260504050114 | 21 | 0 | 0.0 | 1.6 | 0.00 | 0.00 | 0.00 | 48 | 1007.5 |
| 20260504044550 | 21 | 0 | 0.0 | 16.1 | 0.00 | 0.00 | 0.00 | 49 | 1008.1 |
| 20260504043106 | 20 | 0 | 0.0 | 1.6 | 0.00 | 0.00 | 0.00 | 53 | 1007.7 |
| 20260504041548 | 20 | 0 | 0.0 | 1.6 | 0.00 | 0.00 | 0.00 | 53 | 1007.5 |
| 20260504040059 | 19 | 0 | 0.0 | 1.6 | 0.00 | 0.00 | 0.00 | 56 | 1007.6 |
| 20260504034552 | 18 | 0 | 0.0 | 3.2 | 0.00 | 0.00 | 0.00 | 58 | 1007.6 |
| 20260504033054 | 18 | 0 | 0.0 | 1.6 | 0.00 | 0.00 | 0.00 | 61 | 1008.0 |
| 20260504031547 | 18 | 0 | 0.0 | 0.0 | 0.00 | 0.00 | 0.00 | 61 | 1007.9 |
| 20260504030048 | 18 | 0 | 0.0 | 0.0 | 0.00 | 0.00 | 0.00 | 61 | 1007.6 |
| 20260504024549 | 19 | 0 | 0.0 | 0.0 | 0.00 | 0.00 | 0.00 | 59 | 1007.7 |
| 20260504023046 | 20 | 0 | 0.0 | 0.0 | 0.00 | 0.00 | 0.00 | 57 | 1007.7 |
| 20260504021547 | 20 | 0 | 0.0 | 0.0 | 0.00 | 0.00 | 0.00 | 54 | 1007.6 |
| 20260504020047 | 21 | 0 | 0.0 | 0.0 | 0.00 | 0.00 | 0.00 | 51 | 1007.5 |
| 20260504014600 | 22 | 0 | 0.0 | 0.0 | 0.00 | 0.00 | 0.00 | 49 | 1007.5 |
| 20260504013107 | 23 | 0 | 0.0 | 0.0 | 0.00 | 0.00 | 0.00 | 45 | 1007.4 |
| 20260504011550 | 24 | 0 | 0.0 | 0.0 | 0.00 | 0.00 | 0.00 | 42 | 1007.5 |
| 20260504010111 | 25 | 0 | 0.0 | 0.0 | 0.00 | 0.00 | 0.00 | 39 | 1007.4 |
| 20260504004547 | 26 | 0 | 0.0 | 0.0 | 0.00 | 0.00 | 0.00 | 37 | 1007.4 |
| 20260504003049 | 26 | 0 | 0.0 | 1.6 | 0.00 | 0.00 | 0.00 | 35 | 1007.4 |
| 20260504001559 | 27 | 0 | 0.0 | 1.6 | 0.00 | 0.00 | 0.00 | 32 | 1007.6 |
| 20260504000055 | 27 | 0 | 0.0 | 4.8 | 0.00 | 0.00 | 0.00 | 31 | 1007.6 |